www.pogodaiklimat.ru

Погода и климат >> Архив погоды >> Италия >> Roma


АРХИВ ПОГОДЫ в Roma

Время (UTC), дата Ветер
(напр.,м/с)
 
Видим.   Явления Облачность Т
(С)
Тd
(С)
f
(%)
Тe
(С)
Тes
(С)
Комфортность P
(гПа)
Po
(гПа)
Тmin
(С)
Tmax
(С)
R
(мм)
R24
(мм)
S
(см)
12 11.10 Ю 3 20 км слабый дождь {морось} 9/6 720 м
[Cu hum Ac lent Cs]
+22.4 +17.8 75 +27 +29 душно 1019.5 1019.0 0.2
15 11.10 В 3 10 км слабая морось {дождь} 10/4 1200 м
[Frnb As trans]
+20.4 +18.4 88 +24 +25 комфорт 1019.1 1018.7
18 11.10 СВ 2 10 км слабая морось {дождь} 10/4 1500 м
[Frnb As trans]
+19.2 +18.3 95 +22 +22 комфорт 1020.0 1019.6 +22.8 1
21 11.10 СВ 2 10 км слабая морось {дождь} 10/1 1500 м
[Frnb As trans]
+18.4 +17.2 93 +20 +20 тепло 1020.4 1020.0
00 12.10 СВ 3 30 км {дождь, морось} 8/0
[As op]
+18.1 +16.5 90 +18 +18 тепло 1020.6 1020.2
03 12.10 С 1 30 км 5/0
[Ac As Cs]
+17.1 +16.0 93 +18 +18 тепло 1020.6 1020.1
06 12.10 ЮВ 2 27 км 4/0
[Ac lent Ci fib]
+16.8 +15.6 93 +17 +17 тепло 1021.9 1021.4 +15.7
09 12.10 СВ 3 27 км 1/0
[Cs]
+22.4 +16.7 70 +27 +31 душно 1023.1 1022.6
12 12.10 ЮЗ 2 35 км 4/1 1050 м
[Cu hum Cs]
+26.2 +11.9 41 +28 +34 жарко 1022.5 1022.1
15 12.10 З 4 35 км 4/1 1050 м
[Cu med, cong Ci]
+23.3 +18.3 73 +29 +30 душно 1022.0 1021.5
18 12.10 З 2 35 км 4/0
[Ci]
+20.6 +18.0 85 +25 +25 комфорт 1022.9 1022.5 +26.3
21 12.10 В 2 35 км 3/0
[Ci]
+17.8 +16.7 93 +19 +19 тепло 1023.4 1022.9
00 13.10 В 2 12 км ясно +15.9 +15.5 97 +16 +16 тепло 1023.3 1022.9
03 13.10 СВ 2 12 км ясно +15.0 +11.2 78 +15 +15 по сезону 1022.9 1022.4
06 13.10 СВ 3 15 км ясно +14.4 +11.1 81 +14 +14 по сезону 1022.7 1022.3 +14.1
09 13.10 СВ 5 25 км ясно +21.2 +10.5 50 +23 +26 комфорт 1023.0 1022.5
12 13.10 СВ 2 25 км ясно +25.2 +7.7 33 +25 +33 комфорт 1021.3 1020.9
15 13.10 З 4 30 км ясно +23.5 +14.6 57 +26 +27 жарко 1020.3 1019.9
18 13.10 СЗ 2 20 км ясно +18.5 +15.4 82 +20 +20 тепло 1020.7 1020.2 +26.4
21 13.10 С 1 20 км ясно +15.5 +13.8 90 +17 +17 по сезону 1020.5 1020.0
00 14.10 СВ 2 20 км ясно +15.1 +11.9 81 +15 +15 по сезону 1019.8 1019.3
03 14.10 В 2 20 км ясно +14.0 +10.3 78 +14 +14 по сезону 1018.9 1018.4
06 14.10 СВ 2 20 км 4/0
[Cc]
+13.1 +11.3 89 +13 +13 по сезону 1019.0 1018.5 +13.1
09 14.10 В 4 25 км 4/0
[Cc]
+21.2 +12.2 56 +23 +27 комфорт 1019.2 1018.7
12 14.10 ЮВ 2 25 км 3/3 750 м
[Cu med, cong]
+23.8 +12.2 48 +26 +31 жарко 1017.5 1017.0
15 14.10 З 3 40 км 1/0
[Cs]
+22.5 +14.5 61 +26 +27 жарко 1016.2 1015.8
18 14.10 СЗ 1 8000 м дымка 3/0
[Cs]
+19.1 +14.7 76 +22 +22 комфорт 1016.9 1016.4 +24.5
21 14.10 В 1 8000 м дымка 3/0
[Cs]
+16.7 +13.9 84 +18 +18 тепло 1017.0 1016.5
00 15.10 СВ 2 8000 м дымка ясно +14.0 +13.2 95 +14 +14 по сезону 1016.7 1016.2
03 15.10 СВ 1 8000 м дымка ясно +14.1 +12.2 88 +14 +14 по сезону 1015.8 1015.3
06 15.10 В 2 8000 м дымка 3/0
[Ci]
+13.5 +11.4 87 +13 +13 по сезону 1016.0 1015.6 +13.0
09 15.10 В 4 20 км 6/0
[Ci]
+20.8 +12.8 60 +23 +26 комфорт 1016.3 1015.8
12 15.10 З 3 20 км 6/0
[Cs]
+24.0 +12.3 48 +26 +32 жарко 1015.4 1014.9
15 15.10 З 3 20 км 8/0
[Ac As Cc]
+23.2 +13.6 55 +27 +27 душно 1015.3 1014.9
18 15.10 СЗ 2 20 км 8/0
[Ac As]
+20.5 +15.3 72 +24 +24 комфорт 1016.3 1015.9 +24.9
21 15.10 С 1 20 км 8/0
[Ac As]
+18.3 +14.3 77 +20 +20 тепло 1016.7 1016.3
00 16.10 В 2 20 км 8/0
[Ac As]
+18.3 +15.5 84 +19 +19 тепло 1016.6 1016.2
03 16.10 СВ 3 20 км 8/0
[Ac As]
+18.7 +14.2 75 +20 +20 тепло 1015.9 1015.4
06 16.10 В 4 35 км 9/0
[Ac As Cs]
+18.8 +14.4 76 +20 +20 тепло 1016.3 1015.8 +17.8
09 16.10 СВ 3 35 км 9/0
[Ac As Cs]
+23.1 +15.3 61 +27 +30 душно 1017.1 1016.7
12 16.10 Ю 7 30 км 9/4 1200 м
[Cu hum Ac lent Cs]
+24.2 +15.9 60 +27 +28 жарко 1016.8 1016.4
15 16.10 ЮВ 6 25 км 8/4 1500 м
[Cu med, cong Ac lent Cs]
+23.1 +17.3 70 +28 +29 душно 1017.2 1016.8
18 16.10 В 3 25 км 6/4 1500 м
[Cu med, cong Ac lent Cs]
+21.3 +17.2 77 +25 +25 комфорт 1017.4 1017.0 +25.8 2
21 16.10 В 3 20 км 4/0
[Cs]
+19.4 +16.6 84 +22 +22 комфорт 1018.1 1017.6
00 17.10 В 3 12 км дымка 4/0
[Cs]
+17.2 +15.9 92 +17 +17 тепло 1017.3 1016.8
03 17.10 В 2 12 км дымка 6/0
[Ac cast Cs]
+18.0 +16.0 88 +19 +19 тепло 1016.2 1015.8
06 17.10 СВ 2 12 км {дождь} 10/3 900 м
[Cu Sc Ac cuf Cs]
+17.8 +16.4 92 +19 +19 тепло 1016.3 1015.9 +16.7 4
09 17.10 В 4 20 км 9/1 750 м
[Cu hum Ac cast Cs]
+20.6 +17.0 80 +24 +26 комфорт 1017.1 1016.6
12 17.10 ЮВ 4 20 км 6/1 600 м
[Cu hum Ac lent Cs]
+24.0 +17.1 65 +28 +31 душно 1015.2 1014.7 0.2
15 17.10 З 2 70 км 8/1 900 м
[Cu med, cong Ac As Cs]
+22.1 +16.4 70 +26 +27 душно 1014.6 1014.1
18 17.10 С 2 40 км 3/3 1500 м
[Cu med, cong Ac lent]
+19.7 +17.2 85 +23 +23 комфорт 1014.9 1014.5 +24.3 0.2
21 17.10 В 2 25 км 1/0
[Ac lent]
+18.0 +16.4 90 +19 +19 тепло 1015.0 1014.5
00 18.10 СВ 3 30 км 3/0
[Ac trans]
+17.8 +16.1 90 +18 +18 тепло 1014.2 1013.7
03 18.10 СВ 3 40 км ясно +16.9 +15.3 90 +17 +17 тепло 1012.8 1012.4
06 18.10 З 1 30 км ясно +16.6 +14.4 87 +18 +18 тепло 1012.9 1012.4 +15.9
09 18.10 В 3 30 км 3/0
[Cs]
+22.9 +15.6 63 +27 +31 душно 1013.4 1012.9

 

Местоположение метеостанции Roma (Италия): широта 41.80 долгота 12.23 высота над уровнем моря 3 м.

В архиве по умолчанию представлена погода в Roma за последнюю неделю. Архивные данные за месяц целиком и за предыдущие месяцы, начиная с января 2011 года, Вы можете получить, выбрав интересующий диапазон дат из раскрывающегося списка и нажав кнопку "Ввод!".


*Определитесь, кто Вы:
робот инопланетянин человек

Внимание! Время в таблицах - всемирное. Для получения местного времени необходимо прибавить поправку, которая в Roma равна 1 ч.

Смотрите также архив погоды в соседних городах и на ближайших метеорологических станциях:

Погода в Pratica di Mare (Италия) (25 км)
Погода в Vigna di Valle (Италия) (31 км)
Погода в Civitavecchia (Италия) (42 км)
Погода в Guidonia (Италия) (47 км)
Погода в Latina (Италия) (62 км)
Погода в Latina (Италия) (62 км)
Погода в Viterbo (Италия) (72 км)
Погода в Frosinone (Италия) (91 км)
Погода в Torre Olevola (Италия) (96 км)
Погода в Monte Terminillo (Италия) (97 км)

Пояснения к столбцам:

Ветер - указаны скорость ветра в м/с - средняя за 10 мин, порывы в срок и между сроками (в фигурных скобках) и направление, откуда дует ветер: С - северный, СВ - северо-восточный, В - восточный, ЮВ - юго-восточный, Ю - южный, ЮЗ - юго-западный, З - западный, СЗ - северо-западный.
Видимость - горизонтальная дальность видимости в метрах или километрах. При видимости от 1 до 10 км при отсутствии осадков обычно наблюдается дымка, при ухудшении видимости до 1 км и менее - туман. В сухую погоду видимость может ухудшаться дымом, пылью или мглою.
Явления - указаны атмосферные явления, наблюдавшиеся в срок или в последний час перед сроком; фигурными скобками обозначены явления, наблюдавшиеся между сроками (за 1-3 часа до срока); квадратными скобками обозначены град или гололедные отложения с указанием их диаметра в мм.
Облачность - указаны через наклонную черту общая и нижняя облачность в баллах и высота нижней границы облаков в метрах; квадратными скобками обозначены формы облаков: Ci - перистые, Cs - перисто-слоистые, Cc - перисто-кучевые, Ac - высококучевые, As - высокослоистые, Sc - слоисто-кучевые, Ns - слоисто-дождевые, Cu - кучевые, Cb - кучево-дождевые. Подробнее классификацию облаков см. в Атласе облаков (PDF).
T - Температура воздуха - температура, измеренная на высоте 2 м над землей.
Td - Температура точки росы - температура, при понижении до которой содержащийся в воздухе водяной пар достигнет насыщения.
f - Относительная влажность воздуха - влажноcть воздуха, измеренная на высоте 2 м над землей.
Te - Эффективная температура - температура, которую ощущает одетый по сезону человек в тени. Характеристика душности погоды. При расчете учитывается влияние влажности воздуха и скорости ветра на теплоощущения человека.
Tes - Эффективная температура на солнце - температура, которую ощущает человек, с поправкой на солнечный нагрев. Характеристика знойности погоды. Зависит от высоты солнца над горизонтом, облачности и скорости ветра. Ночью, в пасмурную погоду, а также при ветре 12 м/с и более поправка равна нулю.
P - Атмосферное давление - приведенное к уровню моря атмосферное давление.
Po - Атмосферное давление - измеренное на уровне метеостанции атмосферное давление.
Tmin - Минимальная температура - минимум температуры воздуха на высоте 2 м над землей.
Tmax - Максимальная температура - максимум температуры воздуха на высоте 2 м над землей.
R - Количество осадков - Количество выпавших осадков за период времени, мм. При наведении курсора мыши на число - период времени, за который выпало указанное количество осадков.
R24 - Количество осадков - Количество выпавших осадков за 24 часа, мм.
S - Снежный покров - Высота снежного покрова, см. При наведении курсора мыши на число - состояние снежного покрова и степень покрытия местности в баллах.